Weather History for Visalia, CA

Change the Weather History Date:

Sunday, May 18, 2014

  Actual Average Record
Temperature  
Mean Temperature 70 °F -  
Max Temperature 82 °F 84 °F 100 °F (1969)
Min Temperature 57 °F 54 °F 44 °F (1977)
Cooling Degree Days 4    
Growing Degree Days 20 (Base 50)    
Moisture  
Dew Point 45 °F    
Average Humidity 40    
Maximum Humidity 59    
Minimum Humidity 25    
Precipitation  
Precipitation 0.00 in - - ()
Sea Level Pressure  
Sea Level Pressure 29.89 in    
Wind  
Wind Speed 10 mph (NW)    
Max Wind Speed 18 mph    
Max Gust Speed 22 mph    
Visibility 10 miles    
Events      
Averages and records for this station are not official NWS values.
T = Trace of Precipitation, MM = Missing Value Source: NWS Daily Summary

Daily Weather History Graph

Daily Weather History Graph

Search for Another Location

Airport:

Trip Planner

Search our weather history database for the weather conditions in past years. The results will help you decide how hot, cold, wet, or windy it might be!

Date:

Astronomy

May. 18, 2014 Rise Set
Actual Time 5:48 AM PDT 7:59 PM PDT
Civil Twilight 5:19 AM PDT 8:28 PM PDT
Nautical Twilight 4:44 AM PDT 9:04 PM PDT
Astronomical Twilight 4:06 AM PDT 9:42 PM PDT
Moon 11:54 PM PDT (5/18) 9:41 AM PDT (5/18)
Length of Visible Light 15h 08m
Length of Day
14h 11m
Waning Gibbous, 80% of the Moon is Illuminated
May 18
Waning Gibbous
May 21
Last Quarter
May 28
New
Jun 5
First Quarter
Jun 12
Full

Hourly Weather History & Observations

Time (PDT) Temp. Dew Point Humidity Pressure Visibility Wind Dir Wind Speed Gust Speed Precip Events Conditions
12:15 AM 64.4 °F 42.8 °F 45% 29.89 in 10.0 mi NW 9.2 mph - N/A   Clear
12:35 AM 64.4 °F 44.6 °F 49% 29.89 in 10.0 mi NNW 9.2 mph - N/A   Clear
12:55 AM 64.4 °F 44.6 °F 49% 29.88 in 10.0 mi NW 8.1 mph - N/A   Clear
1:15 AM 62.6 °F 44.6 °F 52% 29.88 in 10.0 mi WNW 4.6 mph - N/A   Clear
1:35 AM 62.6 °F 44.6 °F 52% 29.88 in 10.0 mi NW 6.9 mph - N/A   Clear
1:55 AM 62.6 °F 42.8 °F 48% 29.88 in 10.0 mi NW 9.2 mph - N/A   Clear
2:15 AM 62.6 °F 42.8 °F 48% 29.88 in 10.0 mi NW 9.2 mph - N/A   Clear
2:35 AM 62.6 °F 42.8 °F 48% 29.88 in 10.0 mi NW 11.5 mph - N/A   Clear
2:55 AM 64.4 °F 42.8 °F 45% 29.89 in 10.0 mi NW 11.5 mph - N/A   Clear
3:15 AM 64.4 °F 42.8 °F 45% 29.89 in 10.0 mi NNW 13.8 mph - N/A   Clear
3:35 AM 64.4 °F 42.8 °F 45% 29.89 in 10.0 mi NW 10.4 mph - N/A   Clear
3:55 AM 62.6 °F 42.8 °F 48% 29.90 in 10.0 mi NNW 4.6 mph - N/A   Clear
4:15 AM 60.8 °F 41.0 °F 48% 29.90 in 10.0 mi NNW 4.6 mph - N/A   Clear
4:35 AM 60.8 °F 42.8 °F 52% 29.90 in 10.0 mi NW 6.9 mph - N/A   Clear
4:55 AM 59.0 °F 42.8 °F 55% 29.90 in 10.0 mi NW 6.9 mph - N/A   Clear
5:15 AM 57.2 °F 42.8 °F 59% 29.90 in 10.0 mi WNW 6.9 mph - N/A   Clear
5:35 AM 57.2 °F 42.8 °F 59% 29.91 in 10.0 mi NW 8.1 mph - N/A   Clear
5:55 AM 59.0 °F 42.8 °F 55% 29.92 in 10.0 mi NW 9.2 mph - N/A   Clear
6:15 AM 60.8 °F 42.8 °F 52% 29.92 in 10.0 mi NNW 11.5 mph - N/A   Clear
6:35 AM 60.8 °F 42.8 °F 52% 29.92 in 10.0 mi NW 11.5 mph - N/A   Clear
6:55 AM 60.8 °F 42.8 °F 52% 29.93 in 10.0 mi NW 11.5 mph - N/A   Clear
7:15 AM 62.6 °F 42.8 °F 48% 29.94 in 10.0 mi NW 11.5 mph - N/A   Clear
7:35 AM 62.6 °F 42.8 °F 48% 29.94 in 10.0 mi NW 9.2 mph - N/A   Clear
7:55 AM 64.4 °F 42.8 °F 45% 29.94 in 10.0 mi NNW 10.4 mph - N/A   Clear
8:15 AM 64.4 °F 42.8 °F 45% 29.94 in 10.0 mi NNW 11.5 mph - N/A   Clear
8:35 AM 66.2 °F 44.6 °F 46% 29.95 in 10.0 mi NNW 13.8 mph - N/A   Clear
8:55 AM 68.0 °F 44.6 °F 43% 29.95 in 10.0 mi NW 11.5 mph - N/A   Clear
9:15 AM 68.0 °F 44.6 °F 43% 29.95 in 10.0 mi NW 12.7 mph 18.4 mph N/A   Clear
9:35 AM 69.8 °F 46.4 °F 43% 29.95 in 10.0 mi NW 10.4 mph - N/A   Clear
9:55 AM 71.6 °F 46.4 °F 41% 29.95 in 10.0 mi NNW 10.4 mph - N/A   Clear
10:15 AM 71.6 °F 46.4 °F 41% 29.95 in 10.0 mi NNW 12.7 mph 16.1 mph N/A   Clear
10:35 AM 71.6 °F 48.2 °F 43% 29.95 in 10.0 mi NNW 8.1 mph 16.1 mph N/A   Clear
10:55 AM 73.4 °F 48.2 °F 41% 29.95 in 10.0 mi WNW 9.2 mph - N/A   Clear
11:15 AM 73.4 °F 48.2 °F 41% 29.94 in 10.0 mi NNW 6.9 mph - N/A   Clear
11:35 AM 75.2 °F 48.2 °F 38% 29.94 in 10.0 mi NW 10.4 mph - N/A   Clear
11:55 AM 75.2 °F 48.2 °F 38% 29.93 in 10.0 mi NNE 10.4 mph - N/A   Clear
12:15 PM 75.2 °F 48.2 °F 38% 29.93 in 10.0 mi NNW 10.4 mph - N/A   Clear
12:35 PM 77.0 °F 48.2 °F 36% 29.92 in 10.0 mi NW 9.2 mph - N/A   Clear
12:55 PM 78.8 °F 48.2 °F 34% 29.92 in 10.0 mi WNW 9.2 mph - N/A   Clear
1:15 PM 78.8 °F 46.4 °F 32% 29.91 in 10.0 mi WNW 8.1 mph - N/A   Clear
1:35 PM 78.8 °F 48.2 °F 34% 29.90 in 10.0 mi WNW 8.1 mph - N/A   Clear
1:55 PM 80.6 °F 48.2 °F 32% 29.90 in 10.0 mi NW 10.4 mph - N/A   Clear
2:15 PM 80.6 °F 46.4 °F 30% 29.89 in 10.0 mi West 9.2 mph - N/A   Clear
2:35 PM 80.6 °F 48.2 °F 32% 29.88 in 10.0 mi NNW 9.2 mph 16.1 mph N/A   Clear
2:55 PM 82.4 °F 46.4 °F 28% 29.87 in 10.0 mi NNW 11.5 mph 16.1 mph N/A   Clear
3:15 PM 82.4 °F 46.4 °F 28% 29.87 in 10.0 mi West 8.1 mph 17.3 mph N/A   Clear
3:35 PM 82.4 °F 48.2 °F 30% 29.86 in 10.0 mi NNW 11.5 mph - N/A   Clear
3:55 PM 82.4 °F 48.2 °F 30% 29.85 in 10.0 mi WNW 11.5 mph 17.3 mph N/A   Clear
4:15 PM 82.4 °F 48.2 °F 30% 29.85 in 10.0 mi NW 12.7 mph - N/A   Clear
4:35 PM 82.4 °F 48.2 °F 30% 29.84 in 10.0 mi NW 11.5 mph 18.4 mph N/A   Clear
4:55 PM 82.4 °F 48.2 °F 30% 29.84 in 10.0 mi NNW 18.4 mph - N/A   Clear
5:15 PM 82.4 °F 48.2 °F 30% 29.83 in 10.0 mi WNW 13.8 mph 21.9 mph N/A   Clear
5:35 PM 82.4 °F 44.6 °F 26% 29.83 in 10.0 mi NNW 16.1 mph - N/A   Clear
5:55 PM 82.4 °F 44.6 °F 26% 29.83 in 10.0 mi NW 15.0 mph 18.4 mph N/A   Clear
6:15 PM 82.4 °F 44.6 °F 26% 29.82 in 10.0 mi NW 16.1 mph 20.7 mph N/A   Clear
6:35 PM 80.6 °F 42.8 °F 26% 29.82 in 10.0 mi NW 16.1 mph - N/A   Clear
6:55 PM 78.8 °F 42.8 °F 28% 29.82 in 10.0 mi NW 15.0 mph - N/A   Clear
7:15 PM 78.8 °F 42.8 °F 28% 29.82 in 10.0 mi NW 12.7 mph - N/A   Clear
7:35 PM 78.8 °F 42.8 °F 28% 29.82 in 10.0 mi NW 12.7 mph - N/A   Clear
7:55 PM 77.0 °F 39.2 °F 26% 29.82 in 10.0 mi NNW 11.5 mph - N/A   Clear
8:15 PM 75.2 °F 37.4 °F 25% 29.83 in 10.0 mi NW 11.5 mph - N/A   Clear
8:35 PM 73.4 °F 39.2 °F 29% 29.83 in 10.0 mi NW 11.5 mph - N/A   Clear
8:55 PM 73.4 °F 39.2 °F 29% 29.83 in 10.0 mi NW 11.5 mph - N/A   Clear
9:15 PM 73.4 °F 41.0 °F 31% 29.84 in 10.0 mi NNW 11.5 mph - N/A   Clear
9:35 PM 69.8 °F 41.0 °F 35% 29.85 in 10.0 mi WNW 8.1 mph - N/A   Clear
9:55 PM 69.8 °F 42.8 °F 38% 29.85 in 10.0 mi NW 10.4 mph - N/A   Clear
10:15 PM 69.8 °F 44.6 °F 40% 29.86 in 10.0 mi NW 12.7 mph - N/A   Clear
10:35 PM 69.8 °F 44.6 °F 40% 29.86 in 10.0 mi NW 13.8 mph - N/A   Clear
10:55 PM 66.2 °F 44.6 °F 46% 29.87 in 10.0 mi NW 12.7 mph - N/A   Clear
11:15 PM 66.2 °F 46.4 °F 49% 29.87 in 10.0 mi NW 12.7 mph - N/A   Clear
11:35 PM 64.4 °F 46.4 °F 52% 29.87 in 10.0 mi NW 13.8 mph - N/A   Clear
11:55 PM 64.4 °F 44.6 °F 49% 29.88 in 10.0 mi NW 13.8 mph - N/A   Clear